Hourly Data Report for October 20, 2013

All times are specified in Local Standard Time (LST). Add 1 hour to adjust for Daylight Saving Time where and when it is observed.

KAMLOOPS A
BRITISH COLUMBIA

50°42'09.000" N
120°26'55.000" W
345.30 m
1163781
71887
YKA

Download Data

Hourly Data (October 2013)
Hourly Data Report for October 20, 2013
Temp Definition
°C
Dew Point Temp Definition
°C
Rel Hum Definition
%
Wind Dir Definition
10's deg

Wind Spd Definition
km/h
Visibility Definition
km
Stn Press Definition
kPa
Hmdx Definition


Wind Chill Definition


Weather Definition


TIME
00:00 Legend Double Dagger 3.8 1.0 82 10 1 64.4 98.21     LegendNANA
01:00 Legend Double Dagger 3.5 2.0 90 5 2 64.4 98.22     Mainly Clear
02:00 Legend Double Dagger 2.8 1.3 90 6 5 64.4 98.19     LegendNANA
03:00 Legend Double Dagger 3.2 1.6 89 9 9 64.4 98.19     LegendNANA
04:00 Legend Double Dagger 3.4 1.9 90 8 9 64.4 98.20     Mainly Clear
05:00 Legend Double Dagger 2.7 1.5 92 6 4 64.4 98.22     LegendNANA
06:00 Legend Double Dagger 2.8 1.9 94 33 2 48.3 98.22     Fog
07:00 Legend Double Dagger 3.2 1.9 91 2 3 64.4 98.27     Mostly Cloudy
08:00 Legend Double Dagger 4.6 2.8 88 13 3 64.4 98.34     LegendNANA
09:00 Legend Double Dagger 7.1 3.7 79 11 6 64.4 98.28     LegendNANA
10:00 Legend Double Dagger 9.8 4.0 67 27 12 64.4 98.25     Clear
11:00 Legend Double Dagger 11.2 4.0 61 22 11 64.4 98.18     LegendNANA
12:00 Legend Double Dagger 13.4 3.8 52 29 9 64.4 98.11     LegendNANA
13:00 Legend Double Dagger 15.3 4.4 48 26 6 64.4 98.02     Mainly Clear
14:00 Legend Double Dagger 16.0 4.5 46 22 8 64.4 97.96     LegendNANA
15:00 Legend Double Dagger 16.6 4.1 43 18 4 64.4 97.92     LegendNANA
16:00 Legend Double Dagger 16.4 4.9 46 15 2 64.4 97.90     Mainly Clear
17:00 Legend Double Dagger 13.7 5.2 56 6 2 64.4 97.94     LegendNANA
18:00 Legend Double Dagger 12.3 5.3 62 8 12 64.4 98.00     LegendNANA
19:00 Legend Double Dagger 11.1 5.2 67 8 10 64.4 98.05     Clear
20:00 Legend Double Dagger 9.9 5.1 72 17 2 64.4 98.09     LegendNANA
21:00 Legend Double Dagger 8.4 5.0 79 21 4 64.4 98.11     LegendNANA
22:00 Legend Double Dagger 7.6 5.3 85 23 6 64.4 98.14     Clear
23:00 Legend Double Dagger 7.7 4.8 82   0 64.4 98.19     LegendNANA

Notes on Data Quality.

Legend

  • E = Estimated
  • M = Missing
  • NA = Not Available
  • ‡ = Partner data that is not subject to review by the National Climate Archives
Date modified: